| time (UTC) | temp C | wind direction | speed KPH | gust KPH | rain 1hr cm | rain 24hr cm | rain mn cm | humidity % | barometer mb |
| 20260904032504 | 18 | 221 | 20.9 | 49.9 | 0.10 | 0.41 | 0.23 | 93 | 1009.2 |
| 20260904032004 | 18 | 240 | 25.7 | 46.7 | 0.13 | 0.41 | 0.23 | 93 | 1009.3 |
| 20260904031504 | 18 | 260 | 25.7 | 48.3 | 0.10 | 0.38 | 0.20 | 93 | 1009.3 |
| 20260904031003 | 18 | 226 | 24.1 | 48.3 | 0.10 | 0.38 | 0.20 | 93 | 1009.5 |
| 20260904030503 | 19 | 233 | 25.7 | 41.8 | 0.08 | 0.36 | 0.18 | 93 | 1009.7 |
| 20260904030004 | 19 | 230 | 25.7 | 38.6 | 0.08 | 0.36 | 0.18 | 93 | 1009.6 |
| 20260904025004 | 19 | 228 | 20.9 | 51.5 | 0.05 | 0.33 | 0.15 | 93 | 1009.6 |
| 20260904024504 | 19 | 230 | 29.0 | 51.5 | 0.05 | 0.33 | 0.15 | 93 | 1009.6 |
| 20260904024003 | 19 | 237 | 22.5 | 40.2 | 0.05 | 0.33 | 0.15 | 92 | 1009.7 |
| 20260904023504 | 19 | 250 | 19.3 | 32.2 | 0.05 | 0.33 | 0.15 | 93 | 1009.7 |
| 20260904023004 | 19 | 245 | 22.5 | 35.4 | 0.03 | 0.30 | 0.13 | 92 | 1009.8 |
| 20260904022503 | 19 | 231 | 20.9 | 49.9 | 0.03 | 0.30 | 0.13 | 92 | 1009.7 |
| 20260904022003 | 19 | 235 | 16.1 | 33.8 | 0.00 | 0.28 | 0.10 | 92 | 1009.8 |
| 20260904021504 | 19 | 234 | 22.5 | 41.8 | 0.00 | 0.28 | 0.10 | 92 | 1010.0 |
| 20260904021004 | 19 | 249 | 20.9 | 35.4 | 0.00 | 0.28 | 0.10 | 92 | 1010.1 |
| 20260904015503 | 19 | 225 | 22.5 | 33.8 | 0.00 | 0.28 | 0.10 | 92 | 1010.4 |
| 20260904013504 | 19 | 248 | 25.7 | 46.7 | 0.00 | 0.30 | 0.10 | 93 | 1010.7 |
| 20260904013004 | 19 | 226 | 20.9 | 40.2 | 0.00 | 0.30 | 0.10 | 93 | 1010.7 |
| 20260904012503 | 19 | 247 | 25.7 | 41.8 | 0.00 | 0.30 | 0.10 | 93 | 1010.8 |
| 20260904012004 | 19 | 241 | 16.1 | 40.2 | 0.00 | 0.30 | 0.10 | 93 | 1010.8 |
| 20260904011504 | 19 | 223 | 16.1 | 33.8 | 0.00 | 0.30 | 0.10 | 93 | 1010.8 |
| 20260904011003 | 19 | 242 | 22.5 | 41.8 | 0.00 | 0.30 | 0.10 | 93 | 1010.8 |
| 20260904010503 | 19 | 229 | 24.1 | 41.8 | 0.00 | 0.33 | 0.10 | 93 | 1010.9 |
| 20260904010004 | 19 | 261 | 20.9 | 32.2 | 0.00 | 0.33 | 0.10 | 93 | 1011.1 |
| 20260904005503 | 19 | 256 | 20.9 | 35.4 | 0.00 | 0.33 | 0.10 | 93 | 1011.1 |
| 20260904004503 | 19 | 256 | 11.3 | 35.4 | 0.03 | 0.38 | 0.10 | 93 | 1011.1 |
| 20260904003503 | 18 | 234 | 25.7 | 41.8 | 0.05 | 0.41 | 0.10 | 93 | 1011.2 |
| 20260904002503 | 18 | 220 | 16.1 | 29.0 | 0.05 | 0.41 | 0.10 | 93 | 1011.3 |
| 20260904001503 | 18 | 236 | 14.5 | 27.4 | 0.05 | 0.43 | 0.10 | 93 | 1011.4 |
| 20260904001004 | 18 | 228 | 19.3 | 32.2 | 0.05 | 0.46 | 0.10 | 93 | 1011.5 |
| 20260904000003 | 18 | 232 | 12.9 | 29.0 | 0.10 | 0.48 | 0.10 | 93 | 1011.5 |
| 20260903235004 | 18 | 209 | 12.9 | 32.2 | 0.10 | 0.48 | 0.08 | 93 | 1011.5 |
| 20260903234503 | 18 | 225 | 14.5 | 24.1 | 0.10 | 0.48 | 0.08 | 93 | 1011.6 |
| 20260903234004 | 18 | 209 | 16.1 | 29.0 | 0.10 | 0.48 | 0.08 | 93 | 1011.6 |
| 20260903233503 | 18 | 213 | 19.3 | 29.0 | 0.08 | 0.46 | 0.05 | 93 | 1011.6 |
| 20260903233003 | 18 | 227 | 19.3 | 32.2 | 0.08 | 0.46 | 0.05 | 93 | 1011.7 |
| 20260903232504 | 18 | 232 | 17.7 | 25.7 | 0.08 | 0.48 | 0.05 | 92 | 1011.8 |
| 20260903232003 | 18 | 221 | 16.1 | 29.0 | 0.08 | 0.48 | 0.05 | 92 | 1012.0 |
| 20260903231004 | 18 | 208 | 11.3 | 25.7 | 0.05 | 0.46 | 0.05 | 92 | 1012.0 |
| 20260903230504 | 18 | 202 | 9.7 | 22.5 | 0.03 | 0.43 | 0.00 | 92 | 1012.0 |
| 20260903230004 | 18 | 213 | 11.3 | 24.1 | 0.03 | 0.43 | 0.00 | 92 | 1012.1 |
| 20260903225503 | 18 | 196 | 16.1 | 25.7 | 0.03 | 0.43 | 0.43 | 92 | 1012.4 |
| 20260903225004 | 18 | 214 | 11.3 | 24.1 | 0.03 | 0.43 | 0.41 | 92 | 1012.6 |
| 20260903224504 | 18 | 208 | 14.5 | 24.1 | 0.03 | 0.43 | 0.41 | 92 | 1012.8 |
| 20260903223503 | 18 | 214 | 14.5 | 24.1 | 0.03 | 0.43 | 0.41 | 92 | 1013.0 |
| 20260903223004 | 18 | 228 | 14.5 | 24.1 | 0.03 | 0.46 | 0.41 | 92 | 1013.0 |
| 20260903222004 | 18 | 242 | 14.5 | 24.1 | 0.03 | 0.46 | 0.41 | 92 | 1013.2 |
| 20260903221003 | 18 | 224 | 16.1 | 29.0 | 0.03 | 0.48 | 0.41 | 92 | 1013.3 |
| 20260903220503 | 18 | 228 | 17.7 | 32.2 | 0.03 | 0.48 | 0.41 | 92 | 1013.3 |
| 20260903220004 | 18 | 220 | 17.7 | 32.2 | 0.05 | 0.51 | 0.41 | 93 | 1013.5 |
| 20260903215503 | 18 | 238 | 14.5 | 32.2 | 0.05 | 0.51 | 0.41 | 92 | 1013.5 |
| 20260903215004 | 18 | 227 | 16.1 | 32.2 | 0.05 | 0.48 | 0.38 | 92 | 1013.5 |
| 20260903214503 | 18 | 225 | 19.3 | 32.2 | 0.05 | 0.51 | 0.38 | 92 | 1013.6 |
| 20260903213004 | 18 | 242 | 14.5 | 25.7 | 0.05 | 0.51 | 0.38 | 92 | 1013.8 |
| 20260903212503 | 18 | 223 | 14.5 | 29.0 | 0.05 | 0.51 | 0.38 | 92 | 1013.8 |
| 20260903212003 | 18 | 221 | 14.5 | 32.2 | 0.05 | 0.51 | 0.38 | 92 | 1013.8 |
| 20260903211504 | 18 | 222 | 19.3 | 29.0 | 0.05 | 0.51 | 0.38 | 93 | 1013.9 |
| 20260903211003 | 18 | 221 | 14.5 | 32.2 | 0.05 | 0.51 | 0.38 | 93 | 1013.9 |
| 20260903210504 | 18 | 221 | 8.0 | 19.3 | 0.05 | 0.51 | 0.38 | 92 | 1014.0 |
| 20260903205503 | 17 | 230 | 8.0 | 20.9 | 0.05 | 0.51 | 0.36 | 92 | 1014.1 |
| 20260903205004 | 17 | 238 | 14.5 | 24.1 | 0.00 | 0.48 | 0.33 | 92 | 1014.3 |
| 20260903204504 | 17 | 234 | 16.1 | 25.7 | 0.00 | 0.51 | 0.33 | 91 | 1014.5 |
| 20260903203504 | 17 | 250 | 11.3 | 19.3 | 0.00 | 0.51 | 0.33 | 91 | 1014.6 |
| 20260903203004 | 17 | 231 | 9.7 | 19.3 | 0.00 | 0.51 | 0.33 | 91 | 1014.6 |
| 20260903202503 | 17 | 237 | 8.0 | 22.5 | 0.00 | 0.51 | 0.33 | 91 | 1014.6 |
| 20260903202004 | 17 | 219 | 11.3 | 22.5 | 0.00 | 0.51 | 0.33 | 91 | 1014.7 |
| 20260903200504 | 17 | 257 | 11.3 | 19.3 | 0.00 | 0.53 | 0.33 | 91 | 1014.9 |
| 20260903200004 | 17 | 231 | 11.3 | 19.3 | 0.00 | 0.53 | 0.33 | 91 | 1015.0 |
| 20260903195504 | 17 | 252 | 12.9 | 25.7 | 0.00 | 0.56 | 0.33 | 91 | 1015.0 |
| 20260903195004 | 17 | 238 | 11.3 | 20.9 | 0.00 | 0.56 | 0.33 | 90 | 1015.1 |
| 20260903194504 | 17 | 272 | 11.3 | 20.9 | 0.00 | 0.56 | 0.33 | 90 | 1015.2 |
| 20260903194003 | 17 | 262 | 11.3 | 20.9 | 0.00 | 0.56 | 0.33 | 90 | 1015.1 |
| 20260903193504 | 17 | 246 | 9.7 | 20.9 | 0.00 | 0.56 | 0.33 | 90 | 1015.0 |
| 20260903193003 | 17 | 224 | 8.0 | 19.3 | 0.00 | 0.56 | 0.33 | 91 | 1015.0 |
| 20260903192504 | 17 | 224 | 6.4 | 20.9 | 0.00 | 0.56 | 0.33 | 91 | 1015.0 |
| 20260903192004 | 17 | 239 | 8.0 | 20.9 | 0.00 | 0.56 | 0.33 | 90 | 1015.1 |
| 20260903191503 | 17 | 225 | 8.0 | 20.9 | 0.00 | 0.56 | 0.33 | 90 | 1015.1 |
| 20260903191003 | 17 | 254 | 11.3 | 19.3 | 0.00 | 0.56 | 0.33 | 90 | 1015.1 |
| 20260903190503 | 17 | 236 | 11.3 | 25.7 | 0.00 | 0.58 | 0.33 | 90 | 1015.2 |
| 20260903190003 | 17 | 259 | 16.1 | 27.4 | 0.03 | 0.58 | 0.33 | 91 | 1015.4 |
| 20260903185504 | 17 | 279 | 9.7 | 19.3 | 0.03 | 0.58 | 0.33 | 91 | 1015.6 |
| 20260903184503 | 17 | 270 | 14.5 | 25.7 | 0.03 | 0.58 | 0.33 | 91 | 1015.5 |
| 20260903184004 | 17 | 244 | 9.7 | 19.3 | 0.03 | 0.58 | 0.33 | 91 | 1015.5 |
| 20260903183504 | 17 | 227 | 9.7 | 22.5 | 0.03 | 0.58 | 0.33 | 92 | 1015.5 |
| 20260903183004 | 17 | 247 | 9.7 | 22.5 | 0.05 | 0.58 | 0.33 | 92 | 1015.5 |
| 20260903182504 | 17 | 243 | 16.1 | 29.0 | 0.05 | 0.58 | 0.33 | 92 | 1015.4 |
| 20260903182003 | 17 | 267 | 14.5 | 24.1 | 0.05 | 0.58 | 0.33 | 92 | 1015.5 |
| 20260903181503 | 17 | 237 | 12.9 | 27.4 | 0.05 | 0.61 | 0.33 | 92 | 1015.6 |
| 20260903181004 | 17 | 241 | 8.0 | 14.5 | 0.05 | 0.61 | 0.33 | 92 | 1015.6 |
| 20260903180504 | 17 | 224 | 8.0 | 22.5 | 0.05 | 0.61 | 0.33 | 92 | 1015.7 |
| 20260903180003 | 17 | 239 | 11.3 | 25.7 | 0.03 | 0.58 | 0.30 | 92 | 1015.7 |
| 20260903175504 | 17 | 236 | 14.5 | 24.1 | 0.03 | 0.58 | 0.30 | 91 | 1015.6 |
| 20260903175004 | 17 | 247 | 9.7 | 19.3 | 0.03 | 0.58 | 0.30 | 91 | 1015.7 |
| 20260903174504 | 17 | 247 | 8.0 | 19.3 | 0.03 | 0.58 | 0.30 | 91 | 1015.7 |
| 20260903174004 | 17 | 235 | 11.3 | 22.5 | 0.03 | 0.58 | 0.30 | 91 | 1015.6 |
| 20260903173504 | 17 | 279 | 14.5 | 22.5 | 0.03 | 0.58 | 0.30 | 91 | 1015.7 |
| 20260903173003 | 17 | 224 | 8.0 | 19.3 | 0.03 | 0.56 | 0.28 | 91 | 1015.8 |
| 20260903172503 | 18 | 243 | 11.3 | 22.5 | 0.03 | 0.56 | 0.28 | 91 | 1015.8 |
| 20260903172004 | 18 | 263 | 9.7 | 16.1 | 0.03 | 0.56 | 0.28 | 91 | 1015.8 |
| 20260903171504 | 18 | 240 | 11.3 | 24.1 | 0.03 | 0.56 | 0.28 | 91 | 1015.8 |
| 20260903171003 | 18 | 247 | 9.7 | 22.5 | 0.03 | 0.56 | 0.28 | 90 | 1015.8 |
| 20260903170005 | 18 | 215 | 9.7 | 25.7 | 0.03 | 0.56 | 0.28 | 90 | 1015.8 |
| 20260903165503 | 18 | 269 | 14.5 | 24.1 | 0.03 | 0.56 | 0.28 | 90 | 1015.8 |
| 20260903165004 | 18 | 229 | 9.7 | 19.3 | 0.03 | 0.56 | 0.28 | 90 | 1015.8 |
| 20260903164504 | 18 | 266 | 19.3 | 32.2 | 0.03 | 0.56 | 0.28 | 89 | 1015.9 |
| 20260903164003 | 18 | 249 | 11.3 | 27.4 | 0.03 | 0.56 | 0.28 | 89 | 1016.0 |
| 20260903163504 | 18 | 245 | 12.9 | 24.1 | 0.03 | 0.56 | 0.28 | 89 | 1016.1 |
| 20260903163004 | 18 | 259 | 14.5 | 27.4 | 0.00 | 0.53 | 0.25 | 89 | 1016.0 |
| 20260903162503 | 18 | 265 | 9.7 | 19.3 | 0.00 | 0.53 | 0.25 | 88 | 1016.1 |
| 20260903162004 | 18 | 276 | 12.9 | 27.4 | 0.00 | 0.53 | 0.25 | 88 | 1016.3 |
| 20260903161504 | 18 | 278 | 19.3 | 32.2 | 0.00 | 0.53 | 0.25 | 87 | 1016.2 |
| 20260903161004 | 19 | 251 | 12.9 | 19.3 | 0.00 | 0.56 | 0.25 | 87 | 1016.1 |
| 20260903160503 | 19 | 270 | 9.7 | 20.9 | 0.00 | 0.56 | 0.25 | 86 | 1016.1 |
| 20260903160004 | 19 | 284 | 11.3 | 19.3 | 0.00 | 0.56 | 0.25 | 86 | 1016.0 |
| 20260903155503 | 19 | 245 | 9.7 | 20.9 | 0.00 | 0.56 | 0.25 | 86 | 1016.1 |
| 20260903155004 | 19 | 258 | 9.7 | 14.5 | 0.00 | 0.56 | 0.25 | 86 | 1016.0 |
| 20260903154504 | 19 | 247 | 8.0 | 20.9 | 0.00 | 0.56 | 0.25 | 85 | 1016.0 |
| 20260903153503 | 19 | 266 | 14.5 | 20.9 | 0.00 | 0.56 | 0.25 | 86 | 1016.5 |
| 20260903153004 | 19 | 251 | 14.5 | 24.1 | 0.00 | 0.56 | 0.25 | 85 | 1016.6 |
| 20260903152503 | 19 | 256 | 16.1 | 29.0 | 0.00 | 0.56 | 0.25 | 84 | 1016.6 |
| 20260903152004 | 19 | 266 | 16.1 | 27.4 | 0.00 | 0.56 | 0.25 | 85 | 1016.6 |
| 20260903151503 | 19 | 251 | 17.7 | 32.2 | 0.00 | 0.56 | 0.25 | 85 | 1016.6 |
| 20260903151004 | 19 | 249 | 17.7 | 27.4 | 0.00 | 0.58 | 0.25 | 85 | 1016.5 |
| 20260903150503 | 19 | 239 | 14.5 | 29.0 | 0.00 | 0.58 | 0.25 | 85 | 1016.5 |
| 20260903150004 | 20 | 235 | 17.7 | 29.0 | 0.00 | 0.61 | 0.25 | 82 | 1016.5 |
| 20260903145504 | 20 | 232 | 19.3 | 27.4 | 0.00 | 0.61 | 0.25 | 81 | 1016.6 |
| 20260903145003 | 20 | 244 | 14.5 | 29.0 | 0.00 | 0.61 | 0.25 | 81 | 1016.5 |
| 20260903144504 | 20 | 226 | 17.7 | 27.4 | 0.00 | 0.61 | 0.25 | 80 | 1016.5 |
| 20260903144004 | 21 | 258 | 22.5 | 33.8 | 0.00 | 0.61 | 0.25 | 78 | 1016.6 |
| 20260903143504 | 21 | 252 | 22.5 | 32.2 | 0.00 | 0.61 | 0.25 | 77 | 1016.6 |
| 20260903143004 | 21 | 245 | 16.1 | 32.2 | 0.00 | 0.61 | 0.25 | 79 | 1016.5 |
| 20260903142504 | 21 | 240 | 20.9 | 27.4 | 0.00 | 0.61 | 0.25 | 77 | 1016.6 |
| 20260903142003 | 21 | 222 | 22.5 | 35.4 | 0.00 | 0.61 | 0.25 | 76 | 1016.6 |
| 20260903141004 | 21 | 237 | 19.3 | 32.2 | 0.00 | 0.61 | 0.25 | 78 | 1016.5 |
| 20260903140504 | 21 | 232 | 24.1 | 35.4 | 0.00 | 0.61 | 0.25 | 79 | 1016.6 |
| 20260903140003 | 21 | 249 | 25.7 | 37.0 | 0.00 | 0.61 | 0.25 | 78 | 1016.4 |
| 20260903135004 | 21 | 239 | 22.5 | 38.6 | 0.00 | 0.61 | 0.25 | 80 | 1016.6 |
| 20260903134504 | 21 | 256 | 19.3 | 33.8 | 0.00 | 0.66 | 0.25 | 81 | 1016.5 |
| 20260903134004 | 21 | 232 | 16.1 | 22.5 | 0.00 | 0.66 | 0.25 | 82 | 1016.4 |
| 20260903133503 | 21 | 252 | 20.9 | 33.8 | 0.00 | 0.66 | 0.25 | 83 | 1016.4 |
| 20260903133003 | 21 | 249 | 27.4 | 38.6 | 0.00 | 0.66 | 0.25 | 84 | 1016.5 |
| 20260903132504 | 20 | 264 | 20.9 | 32.2 | 0.00 | 0.69 | 0.25 | 85 | 1016.4 |
| 20260903131004 | 20 | 252 | 16.1 | 25.7 | 0.00 | 0.71 | 0.25 | 88 | 1016.5 |
| 20260903130504 | 20 | 228 | 16.1 | 25.7 | 0.00 | 0.71 | 0.25 | 86 | 1016.5 |
| 20260903130004 | 20 | 216 | 16.1 | 22.5 | 0.00 | 0.74 | 0.25 | 86 | 1016.5 |
| 20260903125504 | 20 | 245 | 14.5 | 24.1 | 0.00 | 0.74 | 0.25 | 86 | 1016.5 |
| 20260903124503 | 21 | 235 | 17.7 | 29.0 | 0.00 | 0.74 | 0.25 | 81 | 1016.4 |
| 20260903124004 | 21 | 264 | 19.3 | 27.4 | 0.00 | 0.79 | 0.25 | 80 | 1016.5 |
| 20260903123504 | 21 | 237 | 16.1 | 27.4 | 0.00 | 0.79 | 0.25 | 80 | 1016.6 |
| 20260903123004 | 21 | 237 | 20.9 | 32.2 | 0.00 | 0.79 | 0.25 | 79 | 1016.6 |
| 20260903122504 | 21 | 248 | 20.9 | 29.0 | 0.00 | 0.79 | 0.25 | 78 | 1016.5 |
| 20260903122004 | 21 | 242 | 20.9 | 32.2 | 0.00 | 0.79 | 0.25 | 77 | 1016.5 |
| 20260903121004 | 21 | 235 | 11.3 | 27.4 | 0.00 | 0.79 | 0.25 | 81 | 1016.5 |
| 20260903120503 | 21 | 275 | 12.9 | 22.5 | 0.00 | 0.79 | 0.25 | 82 | 1016.4 |
| 20260903120004 | 21 | 261 | 16.1 | 24.1 | 0.00 | 0.79 | 0.25 | 81 | 1016.6 |
| 20260903115504 | 20 | 264 | 19.3 | 27.4 | 0.00 | 0.79 | 0.25 | 81 | 1016.6 |
| 20260903115003 | 20 | 255 | 19.3 | 24.1 | 0.00 | 0.79 | 0.25 | 81 | 1016.6 |
| 20260903114503 | 20 | 233 | 12.9 | 24.1 | 0.00 | 0.79 | 0.25 | 81 | 1016.7 |
| 20260903114004 | 20 | 259 | 11.3 | 20.9 | 0.00 | 0.79 | 0.25 | 81 | 1016.7 |
| 20260903113503 | 20 | 261 | 14.5 | 20.9 | 0.00 | 0.79 | 0.25 | 80 | 1016.7 |
| 20260903113004 | 20 | 264 | 14.5 | 25.7 | 0.00 | 0.79 | 0.25 | 80 | 1016.7 |
| 20260903112503 | 21 | 274 | 14.5 | 24.1 | 0.00 | 0.79 | 0.25 | 79 | 1016.6 |
| 20260903112003 | 21 | 253 | 11.3 | 20.9 | 0.00 | 0.79 | 0.25 | 79 | 1016.6 |
| 20260903111503 | 21 | 239 | 11.3 | 20.9 | 0.00 | 0.81 | 0.25 | 79 | 1016.6 |
| 20260903111004 | 21 | 257 | 14.5 | 24.1 | 0.00 | 0.84 | 0.25 | 79 | 1016.6 |
| 20260903110504 | 21 | 235 | 14.5 | 27.4 | 0.00 | 0.86 | 0.25 | 78 | 1016.7 |
| 20260903105504 | 21 | 251 | 16.1 | 27.4 | 0.00 | 0.86 | 0.25 | 81 | 1016.7 |
| 20260903105003 | 21 | 253 | 12.9 | 22.5 | 0.00 | 0.89 | 0.25 | 81 | 1016.7 |
| 20260903104503 | 20 | 277 | 16.1 | 29.0 | 0.00 | 0.89 | 0.25 | 82 | 1016.8 |
| 20260903104005 | 20 | 242 | 20.9 | 32.2 | 0.00 | 0.89 | 0.25 | 82 | 1016.7 |
| 20260903103503 | 20 | 253 | 17.7 | 29.0 | 0.00 | 0.89 | 0.25 | 82 | 1016.7 |
| 20260903103004 | 20 | 257 | 17.7 | 29.0 | 0.00 | 0.89 | 0.25 | 81 | 1016.6 |
| 20260903102504 | 20 | 246 | 19.3 | 29.0 | 0.00 | 0.89 | 0.25 | 81 | 1016.5 |
| 20260903102003 | 20 | 243 | 19.3 | 32.2 | 0.00 | 0.89 | 0.25 | 82 | 1016.5 |
| 20260903101004 | 20 | 242 | 14.5 | 24.1 | 0.00 | 0.89 | 0.25 | 84 | 1016.5 |
| 20260903100504 | 20 | 245 | 11.3 | 20.9 | 0.00 | 0.91 | 0.25 | 84 | 1016.6 |
| 20260903100004 | 20 | 280 | 12.9 | 22.5 | 0.00 | 0.91 | 0.25 | 84 | 1016.6 |
| 20260903095003 | 20 | 265 | 14.5 | 22.5 | 0.00 | 0.97 | 0.25 | 84 | 1016.7 |
| 20260903094504 | 20 | 233 | 17.7 | 25.7 | 0.00 | 0.99 | 0.25 | 84 | 1016.8 |
| 20260903093503 | 20 | 277 | 17.7 | 29.0 | 0.00 | 0.99 | 0.25 | 84 | 1016.8 |
| 20260903093003 | 20 | 249 | 19.3 | 32.2 | 0.00 | 1.02 | 0.25 | 84 | 1016.7 |
| 20260903092504 | 19 | 272 | 16.1 | 25.7 | 0.00 | 1.04 | 0.25 | 86 | 1016.7 |
| 20260903091503 | 18 | 247 | 16.1 | 27.4 | 0.00 | 1.09 | 0.25 | 86 | 1016.7 |
| 20260903091003 | 18 | 261 | 9.7 | 19.3 | 0.00 | 1.09 | 0.25 | 87 | 1016.7 |
| 20260903090504 | 18 | 268 | 12.9 | 22.5 | 0.00 | 1.14 | 0.25 | 87 | 1016.8 |
| 20260903090004 | 18 | 280 | 9.7 | 19.3 | 0.00 | 1.17 | 0.25 | 88 | 1016.8 |
| 20260903085504 | 18 | 264 | 14.5 | 22.5 | 0.00 | 1.17 | 0.25 | 88 | 1016.8 |
| 20260903085004 | 18 | 276 | 11.3 | 20.9 | 0.00 | 1.17 | 0.25 | 89 | 1016.8 |
| 20260903084004 | 18 | 239 | 9.7 | 25.7 | 0.00 | 1.19 | 0.25 | 89 | 1016.7 |
| 20260903083503 | 18 | 268 | 14.5 | 20.9 | 0.00 | 1.19 | 0.25 | 90 | 1016.7 |
| 20260903083003 | 18 | 267 | 9.7 | 20.9 | 0.03 | 1.22 | 0.25 | 90 | 1016.7 |
| 20260903082504 | 18 | 228 | 8.0 | 20.9 | 0.03 | 1.24 | 0.25 | 90 | 1016.8 |
| 20260903082004 | 18 | 247 | 14.5 | 20.9 | 0.03 | 1.27 | 0.25 | 90 | 1016.8 |
| 20260903081504 | 18 | 256 | 12.9 | 24.1 | 0.03 | 1.27 | 0.25 | 90 | 1016.8 |
| 20260903081004 | 18 | 280 | 12.9 | 19.3 | 0.03 | 1.27 | 0.25 | 90 | 1016.8 |
| 20260903080504 | 17 | 274 | 12.9 | 20.9 | 0.03 | 1.27 | 0.25 | 90 | 1016.8 |
| 20260903075004 | 17 | 267 | 11.3 | 22.5 | 0.03 | 1.35 | 0.25 | 91 | 1016.7 |
| 20260903074503 | 17 | 256 | 12.9 | 20.9 | 0.03 | 1.35 | 0.25 | 91 | 1016.6 |
| 20260903074004 | 17 | 256 | 11.3 | 20.9 | 0.03 | 1.35 | 0.25 | 91 | 1016.6 |
| 20260903072504 | 17 | 259 | 9.7 | 19.3 | 0.00 | 1.32 | 0.23 | 92 | 1016.4 |
| 20260903072004 | 17 | 254 | 9.7 | 19.3 | 0.00 | 1.32 | 0.23 | 91 | 1016.3 |
| 20260903071504 | 17 | 236 | 11.3 | 22.5 | 0.00 | 1.32 | 0.23 | 91 | 1016.2 |
| 20260903071004 | 17 | 247 | 14.5 | 20.9 | 0.00 | 1.32 | 0.23 | 91 | 1016.2 |
| 20260903070504 | 17 | 257 | 12.9 | 20.9 | 0.00 | 1.32 | 0.23 | 91 | 1016.1 |
| 20260903070004 | 17 | 246 | 11.3 | 22.5 | 0.00 | 1.32 | 0.23 | 92 | 1016.1 |
| 20260903065504 | 17 | 273 | 11.3 | 24.1 | 0.00 | 1.32 | 0.23 | 92 | 1016.0 |
| 20260903065004 | 17 | 235 | 12.9 | 20.9 | 0.00 | 1.32 | 0.23 | 92 | 1015.9 |
| 20260903064503 | 17 | 243 | 11.3 | 19.3 | 0.00 | 1.32 | 0.23 | 92 | 1015.8 |
| 20260903064004 | 17 | 239 | 11.3 | 22.5 | 0.00 | 1.32 | 0.23 | 92 | 1015.8 |
| 20260903063504 | 17 | 245 | 14.5 | 22.5 | 0.00 | 1.32 | 0.23 | 92 | 1015.8 |
| 20260903063003 | 17 | 243 | 14.5 | 24.1 | 0.00 | 1.32 | 0.23 | 92 | 1015.7 |
| 20260903062504 | 17 | 236 | 12.9 | 25.7 | 0.00 | 1.32 | 0.23 | 92 | 1015.6 |
| 20260903062003 | 17 | 222 | 14.5 | 22.5 | 0.00 | 1.32 | 0.23 | 92 | 1015.7 |
| 20260903061503 | 17 | 238 | 14.5 | 20.9 | 0.00 | 1.32 | 0.23 | 92 | 1015.6 |
| 20260903060004 | 17 | 249 | 11.3 | 20.9 | 0.00 | 1.32 | 0.23 | 92 | 1015.6 |
| 20260903055503 | 17 | 244 | 11.3 | 22.5 | 0.00 | 1.32 | 0.23 | 92 | 1015.6 |
| 20260903055004 | 17 | 238 | 12.9 | 22.5 | 0.00 | 1.32 | 0.23 | 92 | 1015.5 |
| 20260903054504 | 17 | 237 | 11.3 | 22.5 | 0.00 | 1.32 | 0.23 | 92 | 1015.5 |
| 20260903054004 | 17 | 253 | 14.5 | 24.1 | 0.00 | 1.32 | 0.23 | 92 | 1015.7 |
| 20260903053504 | 17 | 247 | 12.9 | 25.7 | 0.00 | 1.32 | 0.23 | 92 | 1015.7 |
| 20260903053004 | 17 | 250 | 11.3 | 19.3 | 0.00 | 1.32 | 0.23 | 92 | 1015.6 |
| 20260903052504 | 17 | 254 | 11.3 | 19.3 | 0.00 | 1.32 | 0.23 | 92 | 1015.5 |
| 20260903051504 | 17 | 250 | 8.0 | 16.1 | 0.00 | 1.32 | 0.23 | 92 | 1015.4 |
| 20260903051004 | 17 | 271 | 9.7 | 19.3 | 0.00 | 1.32 | 0.23 | 92 | 1015.4 |
| 20260903050504 | 17 | 260 | 14.5 | 20.9 | 0.00 | 1.32 | 0.23 | 92 | 1015.5 |
| 20260903045503 | 17 | 270 | 12.9 | 27.4 | 0.00 | 1.32 | 0.23 | 92 | 1015.5 |
| 20260903045004 | 17 | 273 | 11.3 | 19.3 | 0.00 | 1.32 | 0.23 | 92 | 1015.5 |
| 20260903044503 | 17 | 262 | 14.5 | 25.7 | 0.00 | 1.32 | 0.23 | 92 | 1015.4 |
| 20260903044004 | 17 | 250 | 14.5 | 32.2 | 0.00 | 1.32 | 0.23 | 92 | 1015.2 |
| 20260903043503 | 17 | 253 | 14.5 | 29.0 | 0.00 | 1.32 | 0.23 | 92 | 1015.2 |
| 20260903043003 | 17 | 246 | 17.7 | 29.0 | 0.00 | 1.32 | 0.23 | 92 | 1015.3 |
| 20260903042504 | 17 | 249 | 14.5 | 29.0 | 0.00 | 1.32 | 0.23 | 93 | 1015.3 |
| 20260903041003 | 17 | 251 | 14.5 | 25.7 | 0.00 | 1.32 | 0.23 | 93 | 1015.3 |
| 20260903040504 | 17 | 251 | 14.5 | 25.7 | 0.00 | 1.32 | 0.23 | 93 | 1015.3 |
| 20260903040004 | 17 | 246 | 14.5 | 24.1 | 0.00 | 1.32 | 0.23 | 93 | 1015.4 |
| 20260903035503 | 17 | 258 | 12.9 | 19.3 | 0.00 | 1.32 | 0.23 | 93 | 1015.4 |
| 20260903035004 | 17 | 235 | 11.3 | 22.5 | 0.00 | 1.32 | 0.23 | 93 | 1015.4 |
| 20260903034004 | 17 | 251 | 16.1 | 24.1 | 0.00 | 1.32 | 0.23 | 93 | 1015.2 |
| 20260903033504 | 17 | 245 | 14.5 | 22.5 | 0.00 | 1.32 | 0.23 | 93 | 1015.1 |
| 20260903033003 | 17 | 256 | 11.3 | 20.9 | 0.00 | 1.32 | 0.23 | 93 | 1015.3 |